Location: Blythe
(33.2930°N, 82.2020°W)
Time: 02:52:37
(UTC-04:00)

Envisat - Visible Passes

Search period start: 28 September 2020 00:00
Search period end: 08 October 2020 00:00
Orbit: 764 x 766 km, 98.1° (Epoch: 28 September)

Date Brightness Start Highest point End Pass type
(mag) Time Alt. Az. Time Alt. Az. Time Alt. Az.
28 Sep 6.7 06:07:19 10° E 06:07:58 10° E 06:08:36 10° E visible
29 Sep 6.1 19:56:32 10° SW 19:59:56 18° W 20:03:19 10° NW visible
30 Sep 6.0 06:29:54 10° NE 06:33:37 20° E 06:37:19 10° SE visible
02 Oct 4.8 06:54:29 10° NNE 06:59:12 37° E 07:03:52 10° SSE visible
02 Oct 5.8 19:44:30 10° SSW 19:48:29 23° W 19:52:30 10° NW visible
03 Oct 6.2 06:19:13 10° ENE 06:22:10 15° E 06:25:07 10° SE visible
04 Oct 6.5 20:12:10 10° WSW 20:14:07 12° W 20:16:06 10° WNW visible
05 Oct 5.3 06:43:24 10° NE 06:47:47 29° E 06:52:08 10° SSE visible
05 Oct 5.3 19:32:39 10° SSW 19:37:03 30° W 19:41:30 10° NW visible
06 Oct 6.5 06:09:02 10° ENE 06:10:42 11° E 06:12:23 10° ESE visible
07 Oct 6.2 19:59:34 10° SW 20:02:39 16° W 20:05:46 10° NW visible
